| time (UTC) | temp F | wind direction | speed knots | gust knots | rain 1hr in | rain 24hr in | rain mn in | humidity % | barometer mb |
| 20260507180359 | 55 | 130 | 13.9 | 0.0 | 0.00 | 0.00 | 0.00 | 88 | 1016.0 |
| 20260507174859 | 59 | 140 | 13.9 | 0.0 | 0.00 | 0.00 | 0.00 | 77 | 1015.0 |
| 20260507173400 | 59 | 140 | 13.9 | 0.0 | 0.00 | 0.00 | 0.00 | 77 | 1015.0 |
| 20260507171900 | 59 | 140 | 13.9 | 0.0 | 0.00 | 0.00 | 0.00 | 77 | 1015.0 |
| 20260507170359 | 59 | 140 | 13.9 | 0.0 | 0.00 | 0.00 | 0.00 | 77 | 1015.0 |
| 20260507164900 | 66 | 140 | 15.6 | 0.0 | 0.00 | 0.00 | 0.00 | 56 | 1015.0 |
| 20260507163400 | 66 | 140 | 15.6 | 0.0 | 0.00 | 0.00 | 0.00 | 56 | 1015.0 |
| 20260507161859 | 66 | 140 | 15.6 | 0.0 | 0.00 | 0.00 | 0.00 | 56 | 1015.0 |
| 20260507160359 | 0 | 0.0 | 0.0 | 0.00 | 0.00 | 0.00 | |||
| 20260507154900 | 70 | 140 | 15.6 | 0.0 | 0.00 | 0.00 | 0.00 | 50 | 1016.0 |
| 20260507153400 | 70 | 140 | 15.6 | 0.0 | 0.00 | 0.00 | 0.00 | 50 | 1016.0 |
| 20260507151900 | 70 | 140 | 15.6 | 0.0 | 0.00 | 0.00 | 0.00 | 50 | 1016.0 |
| 20260507150359 | 70 | 140 | 15.6 | 0.0 | 0.00 | 0.00 | 0.00 | 50 | 1016.0 |
| 20260507144859 | 70 | 140 | 15.6 | 0.0 | 0.00 | 0.00 | 0.00 | 50 | 1016.0 |
| 20260507143401 | 70 | 140 | 15.6 | 0.0 | 0.00 | 0.00 | 0.00 | 50 | 1016.0 |
| 20260507141900 | 70 | 140 | 15.6 | 0.0 | 0.00 | 0.00 | 0.00 | 50 | 1016.0 |
| 20260507140359 | 70 | 140 | 15.6 | 0.0 | 0.00 | 0.00 | 0.00 | 50 | 1016.0 |
| 20260507134900 | 72 | 150 | 13.9 | 0.0 | 0.00 | 0.00 | 0.00 | 50 | 1016.0 |
| 20260507133359 | 72 | 150 | 13.9 | 0.0 | 0.00 | 0.00 | 0.00 | 50 | 1016.0 |
| 20260507131856 | 72 | 150 | 13.9 | 0.0 | 0.00 | 0.00 | 0.00 | 50 | 1016.0 |
| 20260507130359 | 72 | 150 | 13.9 | 0.0 | 0.00 | 0.00 | 0.00 | 50 | 1016.0 |
| 20260507124856 | 72 | 140 | 13.9 | 0.0 | 0.00 | 0.00 | 0.00 | 50 | 1017.0 |
| 20260507123438 | 72 | 140 | 13.9 | 0.0 | 0.00 | 0.00 | 0.00 | 50 | 1017.0 |
| 20260507121859 | 72 | 140 | 13.9 | 0.0 | 0.00 | 0.00 | 0.00 | 50 | 1017.0 |
| 20260507120400 | 72 | 140 | 13.9 | 0.0 | 0.00 | 0.00 | 0.00 | 50 | 1017.0 |
| 20260507114900 | 72 | 140 | 13.9 | 0.0 | 0.00 | 0.00 | 0.00 | 50 | 1017.0 |
| 20260507113427 | 0 | 0.0 | 0.0 | 0.00 | 0.00 | 0.00 | |||
| 20260507111900 | 72 | 140 | 13.9 | 0.0 | 0.00 | 0.00 | 0.00 | 50 | 1017.0 |
| 20260507110359 | 0 | 0.0 | 0.0 | 0.00 | 0.00 | 0.00 | |||
| 20260507104859 | 70 | 140 | 13.9 | 0.0 | 0.00 | 0.00 | 0.00 | 50 | 1017.0 |
| 20260507103359 | 70 | 140 | 13.9 | 0.0 | 0.00 | 0.00 | 0.00 | 50 | 1017.0 |
| 20260507101859 | 70 | 140 | 13.9 | 0.0 | 0.00 | 0.00 | 0.00 | 50 | 1017.0 |
| 20260507100400 | 70 | 140 | 13.9 | 0.0 | 0.00 | 0.00 | 0.00 | 50 | 1017.0 |
| 20260507094900 | 0 | 0.0 | 0.0 | 0.00 | 0.00 | 0.00 | |||
| 20260507093400 | 0 | 0.0 | 0.0 | 0.00 | 0.00 | 0.00 | |||
| 20260507091901 | 0 | 0.0 | 0.0 | 0.00 | 0.00 | 0.00 | |||
| 20260507090400 | 0 | 0.0 | 0.0 | 0.00 | 0.00 | 0.00 | |||
| 20260507084900 | 63 | 140 | 12.2 | 0.0 | 0.00 | 0.00 | 0.00 | 68 | 1017.0 |
| 20260507083400 | 63 | 140 | 12.2 | 0.0 | 0.00 | 0.00 | 0.00 | 68 | 1017.0 |
| 20260507081900 | 63 | 140 | 12.2 | 0.0 | 0.00 | 0.00 | 0.00 | 68 | 1017.0 |
| 20260507080400 | 63 | 140 | 12.2 | 0.0 | 0.00 | 0.00 | 0.00 | 68 | 1017.0 |
| 20260507074900 | 57 | 140 | 9.6 | 0.0 | 0.00 | 0.00 | 0.00 | 77 | 1018.0 |
| 20260507073359 | 57 | 140 | 9.6 | 0.0 | 0.00 | 0.00 | 0.00 | 77 | 1018.0 |
| 20260507071900 | 57 | 140 | 9.6 | 0.0 | 0.00 | 0.00 | 0.00 | 77 | 1018.0 |
| 20260507070359 | 57 | 140 | 9.6 | 0.0 | 0.00 | 0.00 | 0.00 | 77 | 1018.0 |
| 20260507064900 | 52 | 140 | 7.8 | 0.0 | 0.00 | 0.00 | 0.00 | 88 | 1018.0 |
| 20260507063400 | 52 | 140 | 7.8 | 0.0 | 0.00 | 0.00 | 0.00 | 88 | 1018.0 |
| 20260507061909 | 52 | 140 | 7.8 | 0.0 | 0.00 | 0.00 | 0.00 | 88 | 1018.0 |
| 20260507060400 | 52 | 140 | 7.8 | 0.0 | 0.00 | 0.00 | 0.00 | 88 | 1018.0 |
| 20260507054900 | 41 | 110 | 5.2 | 0.0 | 0.00 | 0.00 | 0.00 | 100 | 1017.0 |
| 20260507053407 | 41 | 110 | 5.2 | 0.0 | 0.00 | 0.00 | 0.00 | 100 | 1017.0 |
| 20260507051900 | 41 | 110 | 5.2 | 0.0 | 0.00 | 0.00 | 0.00 | 100 | 1017.0 |
| 20260507050359 | 0 | 0.0 | 0.0 | 0.00 | 0.00 | 0.00 | |||
| 20260507044853 | 41 | 110 | 7.8 | 0.0 | 0.00 | 0.00 | 0.00 | 100 | 1017.0 |
| 20260507043359 | 41 | 110 | 7.8 | 0.0 | 0.00 | 0.00 | 0.00 | 100 | 1017.0 |
| 20260507041900 | 41 | 110 | 7.8 | 0.0 | 0.00 | 0.00 | 0.00 | 100 | 1017.0 |
| 20260507040359 | 41 | 110 | 7.8 | 0.0 | 0.00 | 0.00 | 0.00 | 100 | 1017.0 |
| 20260507034856 | 41 | 110 | 7.8 | 0.0 | 0.00 | 0.00 | 0.00 | 100 | 1017.0 |
| 20260507033359 | 0 | 0.0 | 0.0 | 0.00 | 0.00 | 0.00 | |||
| 20260507031856 | 0 | 0.0 | 0.0 | 0.00 | 0.00 | 0.00 | |||
| 20260507030359 | 0 | 0.0 | 0.0 | 0.00 | 0.00 | 0.00 | |||
| 20260507024856 | 43 | 110 | 5.2 | 0.0 | 0.00 | 0.00 | 0.00 | 100 | 1017.0 |
| 20260507023359 | 43 | 110 | 5.2 | 0.0 | 0.00 | 0.00 | 0.00 | 100 | 1017.0 |
| 20260507021900 | 0 | 0.0 | 0.0 | 0.00 | 0.00 | 0.00 | |||
| 20260507020359 | 0 | 0.0 | 0.0 | 0.00 | 0.00 | 0.00 | |||
| 20260507014859 | 45 | 110 | 5.2 | 0.0 | 0.00 | 0.00 | 0.00 | 100 | 1017.0 |
| 20260507013359 | 45 | 110 | 5.2 | 0.0 | 0.00 | 0.00 | 0.00 | 100 | 1017.0 |
| 20260507011859 | 45 | 110 | 5.2 | 0.0 | 0.00 | 0.00 | 0.00 | 100 | 1017.0 |
| 20260507010400 | 45 | 110 | 5.2 | 0.0 | 0.00 | 0.00 | 0.00 | 100 | 1017.0 |
| 20260507004859 | 45 | 110 | 5.2 | 0.0 | 0.00 | 0.00 | 0.00 | 100 | 1017.0 |
| 20260507003400 | 45 | 110 | 5.2 | 0.0 | 0.00 | 0.00 | 0.00 | 100 | 1017.0 |
| 20260507001859 | 45 | 110 | 5.2 | 0.0 | 0.00 | 0.00 | 0.00 | 100 | 1017.0 |
| 20260507000359 | 45 | 110 | 5.2 | 0.0 | 0.00 | 0.00 | 0.00 | 100 | 1017.0 |
| 20260506234859 | 45 | 110 | 5.2 | 0.0 | 0.00 | 0.00 | 0.00 | 100 | 1017.0 |
| 20260506233359 | 45 | 110 | 5.2 | 0.0 | 0.00 | 0.00 | 0.00 | 100 | 1017.0 |
| 20260506231857 | 45 | 110 | 5.2 | 0.0 | 0.00 | 0.00 | 0.00 | 100 | 1017.0 |
| 20260506230359 | 45 | 110 | 5.2 | 0.0 | 0.00 | 0.00 | 0.00 | 100 | 1017.0 |
| 20260506224856 | 46 | 110 | 6.1 | 0.0 | 0.00 | 0.00 | 0.00 | 100 | 1017.0 |
| 20260506223359 | 46 | 110 | 6.1 | 0.0 | 0.00 | 0.00 | 0.00 | 100 | 1017.0 |
| 20260506221859 | 46 | 110 | 6.1 | 0.0 | 0.00 | 0.00 | 0.00 | 100 | 1017.0 |
| 20260506220359 | 0 | 0.0 | 0.0 | 0.00 | 0.00 | 0.00 | |||
| 20260506214912 | 46 | 110 | 7.8 | 0.0 | 0.00 | 0.00 | 0.00 | 100 | 1016.0 |
| 20260506213400 | 46 | 110 | 7.8 | 0.0 | 0.00 | 0.00 | 0.00 | 100 | 1016.0 |
| 20260506211853 | 46 | 110 | 7.8 | 0.0 | 0.00 | 0.00 | 0.00 | 100 | 1016.0 |
| 20260506210359 | 46 | 110 | 7.8 | 0.0 | 0.00 | 0.00 | 0.00 | 100 | 1016.0 |
| 20260506204900 | 48 | 110 | 7.8 | 0.0 | 0.00 | 0.00 | 0.00 | 100 | 1016.0 |
| 20260506203359 | 48 | 110 | 7.8 | 0.0 | 0.00 | 0.00 | 0.00 | 100 | 1016.0 |
| 20260506201853 | 48 | 110 | 7.8 | 0.0 | 0.00 | 0.00 | 0.00 | 100 | 1016.0 |
| 20260506200359 | 48 | 110 | 7.8 | 0.0 | 0.00 | 0.00 | 0.00 | 100 | 1016.0 |
| 20260506194916 | 52 | 110 | 7.8 | 0.0 | 0.00 | 0.00 | 0.00 | 94 | 1016.0 |
| 20260506193423 | 52 | 110 | 7.8 | 0.0 | 0.00 | 0.00 | 0.00 | 94 | 1016.0 |
| 20260506191900 | 52 | 110 | 7.8 | 0.0 | 0.00 | 0.00 | 0.00 | 94 | 1016.0 |
| 20260506190400 | 52 | 110 | 7.8 | 0.0 | 0.00 | 0.00 | 0.00 | 94 | 1016.0 |
| 20260506184902 | 55 | 110 | 7.8 | 0.0 | 0.00 | 0.00 | 0.00 | 82 | 1015.0 |
| 20260506183359 | 55 | 110 | 7.8 | 0.0 | 0.00 | 0.00 | 0.00 | 82 | 1015.0 |
| 20260506181900 | 55 | 110 | 7.8 | 0.0 | 0.00 | 0.00 | 0.00 | 82 | 1015.0 |